Weather History for Munising, MI

Change the Weather History Date:

Saturday, August 31, 2013

  Actual Average (KISQ) Record (KISQ)
Temperature  
Mean Temperature 70 °F -  
Max Temperature 80 °F 71 °F 90 °F (1991)
Min Temperature 60 °F 51 °F 37 °F (1970)
Cooling Degree Days 5    
Growing Degree Days 20 (Base 50)    
Moisture  
Dew Point 61 °F    
Average Humidity 80    
Maximum Humidity 93    
Minimum Humidity 54    
Precipitation  
Precipitation 0.00 in - - ()
Sea Level Pressure  
Sea Level Pressure 29.86 in    
Wind  
Wind Speed 4 mph (South)    
Max Wind Speed 9 mph    
Max Gust Speed -    
Averages and records for this station are not official NWS values.
T = Trace of Precipitation, MM = Missing Value Source: NWS Daily Summary

Daily Weather History Graph

Daily Weather History Graph

Search for Another Location

Airport:

Trip Planner

Search our weather history database for the weather conditions in past years. The results will help you decide how hot, cold, wet, or windy it might be!

Date:

Astronomy

Aug. 31, 2013 Rise Set
Actual Time 7:05 AM EDT 8:26 PM EDT
Civil Twilight 6:34 AM EDT 8:57 PM EDT
Nautical Twilight 5:56 AM EDT 9:35 PM EDT
Astronomical Twilight 5:16 AM EDT 10:15 PM EDT
Moon 2:24 AM EDT (8/31) 5:33 PM EDT (8/31)
Length of Visible Light 14h 23m
Length of Day
13h 21m
Waning Crescent, 21% of the Moon is Illuminated
Aug 31
Waning Crescent
Sep 5
New
Sep 12
First Quarter
Sep 19
Full
Sep 26
Last Quarter

Hourly Weather History & Observations

Time (EDT) Temp. Heat Index Dew Point Humidity Pressure Visibility Wind Dir Wind Speed Gust Speed Precip Events Conditions
12:56 AM 66.0 °F - 61.0 °F 84% 29.91 in - NNE 6.9 mph - N/A   Unknown
1:56 AM 62.1 °F - 59.0 °F 90% 29.90 in - Calm Calm - N/A   Unknown
2:56 AM 60.1 °F - 57.0 °F 90% 29.90 in - South 3.5 mph - N/A   Unknown
3:56 AM 60.1 °F - 57.9 °F 93% 29.90 in - South 3.5 mph - N/A   Unknown
4:56 AM 60.1 °F - 57.9 °F 93% 29.89 in - Calm Calm - N/A   Unknown
5:56 AM 62.1 °F - 59.0 °F 90% 29.89 in - Calm Calm - N/A   Unknown
6:56 AM 62.1 °F - 59.0 °F 90% 29.91 in - Calm Calm - N/A   Unknown
7:56 AM 64.0 °F - 60.1 °F 87% 29.91 in - Calm Calm - N/A   Unknown
8:56 AM 64.0 °F - 60.1 °F 87% 29.89 in - SW 3.5 mph - N/A   Unknown
9:56 AM 64.9 °F - 60.1 °F 84% 29.89 in - Calm Calm - N/A   Unknown
10:56 AM 66.0 °F - 62.1 °F 87% 29.90 in - North 9.2 mph - N/A   Unknown
11:56 AM 66.9 °F - 62.1 °F 84% 29.88 in - NNE 6.9 mph - N/A   Unknown
12:56 PM 71.1 °F - 64.0 °F 78% 29.87 in - NE 3.5 mph - N/A   Unknown
1:56 PM 71.1 °F - 63.0 °F 75% 29.86 in - Calm Calm - N/A   Unknown
2:56 PM 73.0 °F - 64.9 °F 76% 29.85 in - North 4.6 mph - N/A   Unknown
3:56 PM 79.0 °F - 61.0 °F 54% 29.83 in - South 4.6 mph - N/A   Unknown
4:56 PM 80.1 °F 81.2 °F 62.1 °F 54% 29.81 in - SSE 5.8 mph - N/A   Unknown
5:56 PM 79.0 °F - 63.0 °F 58% 29.81 in - South 8.1 mph - N/A   Unknown
6:56 PM 77.0 °F - 63.0 °F 62% 29.80 in - South 6.9 mph - N/A   Unknown
7:56 PM 73.9 °F - 64.0 °F 71% 29.79 in - South 8.1 mph - N/A   Unknown
8:56 PM 70.0 °F - 63.0 °F 78% 29.80 in - SSW 5.8 mph - N/A   Unknown
9:56 PM 68.0 °F - 61.0 °F 78% 29.83 in - SSW 5.8 mph - N/A   Unknown
10:56 PM 66.9 °F - 63.0 °F 87% 29.81 in - South 5.8 mph - N/A   Unknown
11:56 PM 66.9 °F - 62.1 °F 84% 29.80 in - SSW 9.2 mph - N/A   Unknown